Location: Unspecified
(48.2082°N, 0.0000°E)
Time: 13:10:59
(UTC+00:00)

Altair - Pass Details

Date: 20 June 2019
Orbit: 1501 x 1683 km, 47.2° (Epoch: 16 August)

Event Time Altitude Azimuth Distance (km) Brightness Sun altitude
Rises 01:53:13 0° 288° (WNW) 4,851 10.0 -14.1°
Reaches altitude 10° 01:56:23 10° 284° (WNW) 3,885 9.5 -13.9°
Maximum altitude 02:06:02 57° 210° (SSW) 1,925 7.7 -13.1°
Drops below altitude 10° 02:15:50 10° 136° (SE) 3,940 9.5 -12.3°
Sets 02:19:04 0° 132° (SE) 4,923 10.0 -12.0°
